Details From GVAC - Sal Amilcar Cabral Intl
To DIYO - Yamoussoukro
Flight Number -
Tags Multipart Generated
Created
Modified
Stats Distance 1,190 nm / 2,203 km
Max Altitude 0 ft / 0 m
Waypoints 3
Social Downloads 21
Likes 1
Share VATSIM

Download

Looking for another format? Having issues loading an existing format? Contact us
Advertisement - Login to hide

Notes

Generated

Route

GVAC YAM DIYO

ID Type Via Altitude Latitude Longitude Leg Dist Tot Dist Heading (true) Name
O GVAC APT - 0 ft / 0 m 16.73667˚ -22.95800˚ - 0 nm - -
YAM VOR - 0 ft / 0 m 6.88889˚ -5.37886˚ 1189 nm 1189 nm 118° / 121° YAMOUSSOUKRO VOR-DME
O DIYO APT - 0 ft / 0 m 6.89302˚ -5.37475˚ 0 nm 1189 nm 45° / 45° -

Altitude Profile

Advertisement - Login to hide

Weather


0- 5 10 15 20 25 30 35+ Temperature / ° C

Clouds and Precipitation
Forecast for 2018-05-24 12:00 UTC. Updated 3 hours ago

Ground ~20,000 ft ~40,000 ft Winds

GVAC

Details ICAO GVAC (SID)
Name Sal Amilcar Cabral Intl
Region Cape Verde
Timezone Atlantic/Cape_Verde (UTC-1.0)
Stats Elevation 177 ft / 54 m (AMSL)
Location 16.738208° -22.950500°
Runways 2
Magnetic Variation 9.189° W

METAR

GVAC 241400Z 05019KT 9999 SCT014 25/16 Q1016 NOSIG

Decode

TAF

TAF GVAC 241100Z 2412/2518 03016G26KT 9999 SCT014 BECMG 2421/2423 03016KT TEMPO 2505/2513 BKN014

Decode

Departure Runways

ID Width Length Bearing (true) Bearing (mag) Surface Threshold Offset Overrun Length
01 148 ft / 45 m 10,826 ft / 3,300 m 359.69° 8.88° Asphalt 885 ft / 270 m 0 ft / 0 m
07 148 ft / 45 m 4,892 ft / 1,491 m 57.69° 66.88° Asphalt 200 ft / 61 m 0 ft / 0 m
19 148 ft / 45 m 10,826 ft / 3,300 m 179.69° 188.88° Asphalt 800 ft / 244 m 0 ft / 0 m
25 148 ft / 45 m 4,892 ft / 1,491 m 237.69° 246.88° Asphalt 200 ft / 61 m 0 ft / 0 m

DIYO

Details ICAO DIYO (ASK)
Name YAMOUSSOUKRO
Region Côte d'Ivoire
Timezone Africa/Abidjan (UTC+0.0)
Stats Elevation 699 ft / 213 m (AMSL)
Location 6.903166° -5.365579°
Runways 1
Magnetic Variation 4.636° W

METAR

DIYO 241300Z 14004KT 9999 BKN015 31/24 Q1013 NOSIG

Decode

TAF

TAF DIYO 241100Z 2412/2512 23010KT 9999 SCT013 TEMPO 2416/2422 TS BKN013 FEW025CB PROB30 TEMPO 2423/2503 TS BKN013 FEW025CB

Decode

Destination Runways

ID Width Length Bearing (true) Bearing (mag) Surface Threshold Offset Overrun Length
05 148 ft / 45 m 9,946 ft / 3,032 m 41.92° 46.56° Asphalt 0 ft / 0 m 330 ft / 101 m
23 148 ft / 45 m 9,946 ft / 3,032 m 221.92° 226.56° Asphalt 0 ft / 0 m 330 ft / 101 m